TimeCDT,TemperatureF,Dew PointF,Humidity,Sea Level PressureIn,VisibilityMPH,Wind Direction,Wind SpeedMPH,Gust SpeedMPH,PrecipitationIn,Events,Conditions,WindDirDegrees,DateUTC
12:15 AM,44.6,37.4,76,30.21,10.0,North,16.1,-,N/A,,Overcast,10,2011-10-01 05:15:00
12:35 AM,44.6,37.4,76,30.21,10.0,NNE,12.7,-,N/A,,Overcast,20,2011-10-01 05:35:00
12:55 AM,44.6,37.4,76,30.21,10.0,NNE,12.7,-,N/A,,Overcast,20,2011-10-01 05:55:00
1:15 AM,44.6,37.4,76,30.21,10.0,NNE,12.7,-,N/A,,Overcast,20,2011-10-01 06:15:00
1:35 AM,44.6,35.6,71,30.22,10.0,NNE,11.5,-,N/A,,Overcast,30,2011-10-01 06:35:00
1:55 AM,44.6,35.6,71,30.23,10.0,NNE,10.4,-,N/A,,Overcast,20,2011-10-01 06:55:00
2:15 AM,44.6,33.8,66,30.23,10.0,NE,13.8,23.0,N/A,,Overcast,40,2011-10-01 07:15:00
2:35 AM,44.6,33.8,66,30.22,10.0,NNE,13.8,-,N/A,,Overcast,30,2011-10-01 07:35:00
2:55 AM,44.6,33.8,66,30.23,10.0,NNE,11.5,-,N/A,,Overcast,30,2011-10-01 07:55:00
3:15 AM,44.6,33.8,66,30.23,10.0,North,12.7,20.7,N/A,,Overcast,10,2011-10-01 08:15:00
3:35 AM,44.6,33.8,66,30.24,10.0,NNE,11.5,-,N/A,,Overcast,30,2011-10-01 08:35:00
4:15 AM,44.6,33.8,66,30.24,10.0,NE,11.5,-,N/A,,Overcast,40,2011-10-01 09:15:00
4:35 AM,44.6,33.8,66,30.25,10.0,NE,8.1,-,N/A,,Overcast,40,2011-10-01 09:35:00
4:55 AM,42.8,33.8,70,30.26,10.0,NE,6.9,-,N/A,,Overcast,40,2011-10-01 09:55:00
5:15 AM,42.8,33.8,70,30.26,10.0,NNE,9.2,-,N/A,,Overcast,30,2011-10-01 10:15:00
5:35 AM,42.8,33.8,70,30.26,10.0,NNE,8.1,-,N/A,,Overcast,30,2011-10-01 10:35:00
5:55 AM,42.8,33.8,70,30.27,10.0,NE,9.2,-,N/A,,Overcast,40,2011-10-01 10:55:00
6:15 AM,42.8,33.8,70,30.28,10.0,NE,9.2,-,N/A,,Mostly Cloudy,40,2011-10-01 11:15:00
6:35 AM,42.8,33.8,70,30.29,10.0,NE,5.8,-,N/A,,Mostly Cloudy,50,2011-10-01 11:35:00
6:55 AM,41.0,33.8,76,30.31,10.0,NE,8.1,-,N/A,,Partly Cloudy,40,2011-10-01 11:55:00
7:15 AM,41.0,33.8,76,30.31,10.0,NE,8.1,-,N/A,,Clear,40,2011-10-01 12:15:00
7:35 AM,42.8,33.8,70,30.31,10.0,NE,6.9,-,N/A,,Scattered Clouds,40,2011-10-01 12:35:00
7:55 AM,42.8,33.8,70,30.32,10.0,NE,8.1,-,N/A,,Mostly Cloudy,40,2011-10-01 12:55:00
8:15 AM,44.6,33.8,66,30.32,10.0,NE,10.4,-,N/A,,Mostly Cloudy,40,2011-10-01 13:15:00
8:35 AM,44.6,33.8,66,30.34,10.0,NE,10.4,-,N/A,,Overcast,40,2011-10-01 13:35:00
8:55 AM,44.6,35.6,71,30.34,10.0,ENE,10.4,-,N/A,,Overcast,70,2011-10-01 13:55:00
9:15 AM,46.4,35.6,66,30.35,10.0,NE,10.4,-,N/A,,Mostly Cloudy,50,2011-10-01 14:15:00
9:35 AM,46.4,33.8,62,30.34,10.0,NNE,9.2,-,N/A,,Clear,30,2011-10-01 14:35:00
9:55 AM,46.4,35.6,66,30.34,10.0,NNE,9.2,-,N/A,,Partly Cloudy,30,2011-10-01 14:55:00
10:15 AM,46.4,35.6,66,30.35,10.0,NE,8.1,-,N/A,,Scattered Clouds,50,2011-10-01 15:15:00
10:35 AM,48.2,35.6,62,30.35,10.0,North,5.8,-,N/A,,Scattered Clouds,350,2011-10-01 15:35:00
10:55 AM,48.2,37.4,66,30.35,10.0,North,9.2,-,N/A,,Scattered Clouds,350,2011-10-01 15:55:00
11:15 AM,48.2,35.6,62,30.35,10.0,North,12.7,-,N/A,,Scattered Clouds,10,2011-10-01 16:15:00
11:35 AM,48.2,37.4,66,30.34,10.0,North,12.7,16.1,N/A,,Clear,350,2011-10-01 16:35:00
12:15 PM,48.2,37.4,66,30.34,10.0,NNW,15.0,19.6,N/A,,Clear,340,2011-10-01 17:15:00
12:35 PM,48.2,37.4,66,30.34,10.0,North,16.1,-,N/A,,Clear,360,2011-10-01 17:35:00
1:15 PM,48.2,35.6,62,30.33,10.0,North,16.1,-,N/A,,Clear,350,2011-10-01 18:15:00
1:35 PM,48.2,35.6,62,30.33,10.0,North,12.7,-,N/A,,Clear,360,2011-10-01 18:35:00
1:55 PM,48.2,35.6,62,30.32,10.0,North,10.4,-,N/A,,Clear,10,2011-10-01 18:55:00
2:15 PM,50.0,35.6,58,30.31,10.0,North,6.9,-,N/A,,Clear,360,2011-10-01 19:15:00
2:35 PM,51.8,37.4,58,30.31,10.0,North,6.9,-,N/A,,Clear,350,2011-10-01 19:35:00
2:55 PM,51.8,35.6,54,30.34,10.0,North,8.1,-,N/A,,Clear,10,2011-10-01 19:55:00
3:15 PM,51.8,37.4,58,30.34,10.0,North,5.8,-,N/A,,Clear,360,2011-10-01 20:15:00
3:35 PM,51.8,37.4,58,30.33,10.0,North,6.9,-,N/A,,Clear,10,2011-10-01 20:35:00
3:55 PM,51.8,35.6,54,30.33,10.0,North,8.1,-,N/A,,Clear,10,2011-10-01 20:55:00
4:15 PM,53.6,37.4,54,30.33,10.0,NNE,6.9,-,N/A,,Clear,20,2011-10-01 21:15:00
4:35 PM,53.6,35.6,51,30.33,10.0,North,6.9,-,N/A,,Clear,360,2011-10-01 21:35:00
4:55 PM,53.6,35.6,51,30.32,10.0,North,5.8,-,N/A,,Clear,10,2011-10-01 21:55:00
5:15 PM,53.6,33.8,47,30.32,10.0,NNE,6.9,-,N/A,,Clear,20,2011-10-01 22:15:00
5:35 PM,53.6,32.0,44,30.31,10.0,NNE,3.5,-,N/A,,Clear,20,2011-10-01 22:35:00
5:55 PM,51.8,26.6,38,30.31,10.0,ENE,3.5,-,N/A,,Clear,60,2011-10-01 22:55:00
6:15 PM,50.0,37.4,62,30.31,10.0,SE,4.6,-,N/A,,Clear,130,2011-10-01 23:15:00
6:35 PM,48.2,37.4,66,30.30,10.0,SE,3.5,-,N/A,,Clear,130,2011-10-01 23:35:00
6:55 PM,46.4,37.4,71,30.29,10.0,SE,3.5,-,N/A,,Clear,130,2011-10-01 23:55:00
7:15 PM,44.6,37.4,76,30.29,10.0,Calm,Calm,-,N/A,,Clear,0,2011-10-02 00:15:00
7:35 PM,44.6,39.2,81,30.30,10.0,Calm,Calm,-,N/A,,Clear,0,2011-10-02 00:35:00
7:55 PM,42.8,39.2,87,30.28,10.0,South,3.5,-,N/A,,Clear,190,2011-10-02 00:55:00
8:15 PM,42.8,37.4,81,30.28,10.0,Calm,Calm,-,N/A,,Clear,0,2011-10-02 01:15:00
8:35 PM,41.0,37.4,87,30.27,10.0,Calm,Calm,-,N/A,,Clear,0,2011-10-02 01:35:00
8:55 PM,41.0,39.2,93,30.28,10.0,Calm,Calm,-,N/A,,Clear,0,2011-10-02 01:55:00
9:15 PM,41.0,37.4,87,30.28,10.0,Calm,Calm,-,N/A,,Clear,0,2011-10-02 02:15:00
9:35 PM,39.2,37.4,93,30.27,10.0,Calm,Calm,-,N/A,,Clear,0,2011-10-02 02:35:00
9:55 PM,39.2,37.4,93,30.27,10.0,Calm,Calm,-,N/A,,Clear,0,2011-10-02 02:55:00
10:15 PM,39.2,37.4,93,30.27,10.0,Calm,Calm,-,N/A,,Clear,0,2011-10-02 03:15:00
10:35 PM,39.2,37.4,93,30.26,10.0,Calm,Calm,-,N/A,,Clear,0,2011-10-02 03:35:00
10:55 PM,39.2,37.4,93,30.27,10.0,Calm,Calm,-,N/A,,Clear,0,2011-10-02 03:55:00
11:15 PM,37.4,37.4,100,30.27,10.0,Calm,Calm,-,N/A,,Clear,0,2011-10-02 04:15:00
11:35 PM,37.4,37.4,100,30.27,10.0,Calm,Calm,-,N/A,,Clear,0,2011-10-02 04:35:00
11:55 PM,37.4,35.6,93,30.26,10.0,Calm,Calm,-,N/A,,Clear,0,2011-10-02 04:55:00